Regional Weather Roundup
Issued by NWS

Home | Current Version | Previous Version | Graphics & Text | Print | Product List | Glossary On
Versions: 1 2 3 4 5 6 7 8 9 10 11 12 13 14 15 16 17 18 19 20 21 22 23 24 25 26 27 28 29 30 31 32 33 34 35 36 37 38 39 40 41 42 43 44 45 46 47 48 49 50
000
ASUS43 KIND 280009
RWRIN

WEATHER ROUNDUP FOR INDIANA
NATIONAL WEATHER SERVICE INDIANAPOLIS IN
800 PM EDT TUE SEP 27 2016

NOTE: "FAIR" INDICATES FEW OR NO CLOUDS BELOW 12,000 FEET WITH NO
SIGNIFICANT WEATHER AND/OR OBSTRUCTIONS TO VISIBILITY.

* - STATION DOES NOT REPORT WEATHER SUCH AS PRECIPITATION OR FOG.

+ - STATION NOT QUALITY CONTROLLED BY THE NATIONAL WEATHER SERVICE.
    USE DATA WITH CAUTION...ESPECIALLY DEWPOINT AND RELATIVE
    HUMIDITY OBSERVATIONS.

INZ001>003-010>013-019-020-280100-
NORTHWEST INDIANA

CITY           SKY/WX    TMP DP  RH WIND       PRES   REMARKS
GARY /AIRPORT/ MOCLDY    64  32  29 W12       29.77R
KNOX *+        PTCLDY    61   1   9 W6        29.77R
LA PORTE +     CLEAR     57  41  55 CALM      29.78R
6HR MIN TEMP:  57; 6HR MAX TEMP:  73;

MICHIGAN CITY+ PTCLDY    61  41  48 MISG      29.77S
MONTICELLO +   CLEAR     64  25  22 W3        29.78R
6HR MIN TEMP:  64; 6HR MAX TEMP:  74;

RENSSELAER +   CLEAR     63  27  25 SW5       29.78S
VALPARAISO     CLEAR     59  37  44 W6        29.78R
6HR MIN TEMP:  59; 6HR MAX TEMP:  71;


$$

LMZ046-743>745-280100-
SOUTHERN LAKE MICHIGAN

STATION/POSITION TIME  TEMP    WIND        PRES    WAVE
                       AIR SEA DIR/SP/G            HT
                 (UTC) (F)     (DEG/KT/KT) (MB)    (FT)
BURNS HARBOR     0003   67     290/ 15/ 22 1008.5R
MICHIGAN CITY    2300   67     260/ 15/ 17   N/A
5NW MICH CITY    0000   68 67  290/ 16/ 21   N/A     5

$$

INZ004-005-014>016-021>024-280100-
NORTH CENTRAL INDIANA

CITY           SKY/WX    TMP DP  RH WIND       PRES   REMARKS
ELKHART        CLEAR    N/A N/A N/A MISG      29.78R
GOSHEN         CLEAR     58  36  43 NW5       29.77R
6HR MIN TEMP:  58; 6HR MAX TEMP:  70; 6HR PCP: TRACE;

LOGANSPORT +   CLEAR     57  37  47 SW3       29.79S
PERU/GRISSOM   CLEAR     62  36  38 SW8       29.77S
6HR MIN TEMP:  62; 6HR MAX TEMP:  74;

ROCHESTER +    PTCLDY    68  32  26 W3        29.79R
SOUTH BEND     MOCLDY    60  41  49 W5        29.78R
6HR MIN TEMP:  59; 6HR MAX TEMP:  69;

WARSAW +       CLEAR     59  28  31 W3        29.77S

$$

INZ006>009-017-018-025>027-280100-
NORTHEAST INDIANA

CITY           SKY/WX    TMP DP  RH WIND       PRES   REMARKS
ANGOLA *+        N/A     59  50  72 CALM      29.78R
AUBURN +       CLEAR     61  32  33 CALM      29.79R
FORT WAYNE     PTCLDY    59  37  44 SW6       29.79R
6HR MIN TEMP:  59; 6HR MAX TEMP:  74;

HUNTINGTON +   CLEAR     60  38  44 SW3       29.78R
KENDALLVILLE + CLEAR     62  33  33 CALM      29.78R

$$

INZ028-029-035-036-043>045-051>053-280100-
WEST CENTRAL INDIANA

CITY           SKY/WX    TMP DP  RH WIND       PRES   REMARKS
CRAWFORDSVL +  CLEAR     62  40  45 SW5       29.81S
6HR MIN TEMP:  62; 6HR MAX TEMP:  74;

GREENCASTLE +  CLEAR     61  52  72 S3        29.83R
LAFAYETTE      CLEAR     64  39  39 W3        29.79R
6HR MIN TEMP:  64; 6HR MAX TEMP:  74; 6HR PCP: TRACE;

TERRE HAUTE    CLEAR     66  46  48 SW7       29.82S
6HR MIN TEMP:  66; 6HR MAX TEMP:  77;


$$

INZ030>032-037>040-046>048-054>057-064-065-280100-
CENTRAL INDIANA

CITY           SKY/WX    TMP DP  RH WIND       PRES   REMARKS
COLUMBUS       PTCLDY    66  52  59 SW3       29.85R
FRANKFORT +    CLEAR     65  36  34 W6        29.83R
6HR MIN TEMP:  65; 6HR MAX TEMP:  77;

GREENWOOD *+   CLEAR     68  46  45 SW6       29.83S
INDIANAPOLIS   PTCLDY    64  45  49 S9        29.82R
6HR MIN TEMP:  64; 6HR MAX TEMP:  75;

-EAGLE CREEK   CLEAR     68  42  38 SW6       29.81R
6HR MIN TEMP:  68; 6HR MAX TEMP:  75;

MARION +       CLEAR     62  34  35 W7        29.80S
MT COMFORT *+  CLEAR     64  43  45 SW5       29.83R
SHELBYVILLE    CLEAR     64  47  53 SW7       29.83R
6HR MIN TEMP:  64; 6HR MAX TEMP:  77;

ZIONSVILLE +   CLEAR     59  44  57 SW6       29.83R
6HR MIN TEMP:  59; 6HR MAX TEMP:  74;


$$

INZ033-034-041-042-049-050-058-059-280100-
EAST CENTRAL INDIANA

CITY           SKY/WX    TMP DP  RH WIND       PRES   REMARKS
MUNCIE         CLEAR     67  39  35 SW6       29.81R
6HR MIN TEMP:  67; 6HR MAX TEMP:  76;


$$

INZ060-061-067>069-081>083-085>088-280100-
SOUTHWEST INDIANA

CITY           SKY/WX    TMP DP  RH WIND       PRES   REMARKS
EVANSVILLE     CLEAR     67  50  54 SW5       29.88S
6HR MIN TEMP:  66; 6HR MAX TEMP:  79;

HUNTINGBURG *+   N/A     68  46  45 SW7       29.88R
6HR MIN TEMP:  68; 6HR MAX TEMP:  77;

WASHINGTON +   CLEAR     64  51  64 MISG      29.86R
6HR MIN TEMP:  64; 6HR MAX TEMP:  77;


$$

INZ062-063-066-070>080-084-089>092-280100-
SOUTH CENTRAL AND SOUTHEAST INDIANA

CITY           SKY/WX    TMP DP  RH WIND       PRES   REMARKS
BLOOMINGTON    CLEAR     60  53  77 SW3       29.85R
6HR MIN TEMP:  60; 6HR MAX TEMP:  78;

MADISON *+     CLEAR     63  46  55 S5        29.89R
SEYMOUR +      PTCLDY    68  46  45 SW5       29.85S

$$





USA.gov is the U.S. government's official web portal to all federal, state and local government web resources and services.